Location: Ca�n Batista
(41.4099°N, 1.7752°E)
Time: 14:33:34
(UTC+00:00)

COSMOS 2428 - Pass Details

Date: 03 March 2021
Orbit: 845 x 858 km, 70.9° (Epoch: 22 April)

Event Time Altitude Azimuth Distance (km) Brightness Sun altitude
Rises 20:59:11 0° 231° (SW) 3,393 6.1 -36.1°
Reaches altitude 10° 21:01:53 10° 241° (WSW) 2,462 5.4 -36.5°
Maximum altitude 21:06:54 32° 304° (WNW) 1,418 4.2 -37.3°
Enters shadow 21:07:04 32° 307° (NW) 1,421 4.2 -37.4°
Exits shadow 21:13:50 - 14° (NNE) 3,121 5.8 -38.5°
Sets 21:14:41 0° 17° (NNE) 3,421 6.0 -38.6°
